PRAETORIAN SDA_607

Last updated on Sat Oct 11 2025 00:02:05 GMT+0000 (Coordinated Universal Time)

1 65570U 25203F 25283.39409404 .00000027 00000+0 13628-4 0 9990 2 65570 81.3022 242.1595 0010038 143.7259 216.4581 13.85224363 4134
UTC large
Height (km)
Speed (km/s)
/
Latitude / Longitude
Inclination (degrees)
Orbital Period (minutes)
Azimuth
Elevation
Range (km)
Doppler Factor

Next 0 passes for location: London (51.5072 / 0.1276)

Sorry there are no passes over London.
PRAETORIAN SDA_607